Date String (YYYY-MM-DD hh:mm:ss) UTC,Instrument flags,Ambient pressure (hPa),Sample flow (lpm),Bypass flow (lpm),Sample temperature (°C),Ambient temperature (°C),ASC tube jacket temperature (°C),LED temperature (°C),Box temperature (°C),Sample RH (%),Span deviation,Mass concentration (μg/m³),Mass concentration (μg/m³),Mass concentration (μg/m³)
DateTimeUTC,F1_M11,P_M11,Q1_M11,Q2_M11,T1_M11,T2_M11,T3_M11,T4_M11,T5_M11,U1_M11,ZSPAN_M11,X0_M11,X2_M11,X1_M11
2022-12-20 08:00:00,,0829.2,5.03,0.00,21.4,20.8,00.0,30.1,23.2,06.3,0000.0,0008.93,0003.21,0002.31
2022-12-20 08:01:00,,0829.3,4.97,0.00,21.4,20.6,00.0,30.1,23.2,06.2,0000.0,0008.90,0003.25,0002.37
2022-12-20 08:02:00,,0829.4,5.04,0.00,21.4,20.5,00.0,30.1,23.2,05.9,0000.0,0009.38,0003.51,0002.60
2022-12-20 08:03:00,,0829.3,4.97,0.00,21.4,20.4,00.0,30.2,23.2,06.0,0000.0,0012.03,0003.85,0002.87
2022-12-20 08:04:00,,0829.4,5.02,0.00,21.5,20.4,00.0,30.2,23.2,05.9,0000.0,0013.11,0004.05,0003.09
2022-12-20 08:05:00,,0829.3,5.02,0.00,21.4,20.3,00.0,30.2,23.2,05.8,0000.0,0013.89,0004.18,0003.15
2022-12-20 08:06:00,,0829.3,4.96,0.00,21.5,20.3,00.0,30.2,23.2,05.6,0000.0,0014.79,0004.42,0003.22
2022-12-20 08:07:00,,0829.3,5.02,0.00,21.5,20.3,00.0,30.2,23.3,05.8,0000.0,0015.87,0004.70,0003.34
2022-12-20 08:08:00,,0829.3,4.97,0.00,21.5,20.3,00.0,30.2,23.3,06.0,0000.2,0019.32,0005.32,0003.62
2022-12-20 08:09:00,,0829.3,5.01,0.00,21.5,20.2,00.0,30.3,23.3,05.8,0000.7,0024.28,0005.93,0003.91
2022-12-20 08:10:00,,0829.1,5.03,0.00,21.5,20.2,00.0,30.3,23.3,05.5,0001.1,0026.03,0006.22,0004.04
2022-12-20 08:11:00,,0828.7,4.96,0.00,21.5,20.2,00.0,30.3,23.3,05.5,0001.3,0026.57,0006.26,0004.07
2022-12-20 08:12:00,,0828.7,5.03,0.00,21.5,20.2,00.0,30.3,23.3,05.5,0001.6,0027.30,0006.34,0004.08
2022-12-20 08:13:00,,0828.8,4.96,0.00,21.5,20.2,00.0,30.3,23.3,05.5,0001.3,0028.13,0006.23,0004.00
2022-12-20 08:14:00,,0828.9,5.04,0.00,21.5,20.2,00.0,30.3,23.2,05.5,0001.4,0024.57,0005.74,0003.76
2022-12-20 08:15:00,,0828.7,4.98,0.00,21.5,20.2,00.0,30.3,23.3,05.3,0001.7,0023.94,0005.46,0003.55
2022-12-20 08:16:00,,0828.7,5.01,0.00,21.5,20.2,00.0,30.3,23.2,05.4,0000.9,0023.83,0005.31,0003.44
2022-12-20 08:17:00,,0828.7,5.03,0.00,21.5,20.6,00.0,30.3,23.3,05.4,0000.0,0024.09,0005.09,0003.33
2022-12-20 08:18:00,,0829.1,4.98,0.00,21.6,21.6,00.0,30.2,23.6,05.5,0000.0,0025.01,0005.11,0003.33
2022-12-20 08:19:00,,0829.3,4.98,0.00,21.7,22.0,00.0,30.3,23.8,05.5,0000.0,0023.08,0004.95,0003.23
2022-12-20 08:20:00,,0829.2,5.01,0.00,21.8,21.7,00.0,30.4,23.8,05.5,0000.0,0019.83,0004.84,0003.11
2022-12-20 08:21:00,,0829.3,5.01,0.00,21.8,21.4,00.0,30.4,23.7,05.4,0000.0,0020.57,0004.94,0003.12
2022-12-20 08:22:00,,0829.3,4.97,0.00,21.8,21.2,00.0,30.4,23.7,05.4,0000.0,0023.15,0005.29,0003.25
2022-12-20 08:23:00,,0828.8,5.05,0.00,21.8,21.0,00.0,30.5,23.6,05.3,0000.0,0026.62,0005.63,0003.34
2022-12-20 08:24:00,,0828.7,4.97,0.00,21.8,20.9,00.0,30.5,23.6,05.4,0000.0,0026.37,0005.65,0003.32
2022-12-20 08:25:00,,0828.8,5.05,0.00,21.8,20.8,00.0,30.5,23.6,05.7,0000.0,0026.61,0005.61,0003.28
2022-12-20 08:26:00,,0829.1,4.96,0.00,21.8,20.7,00.0,30.5,23.6,05.7,0000.0,0025.87,0005.46,0003.22
2022-12-20 08:27:00,,0829.0,5.03,0.00,21.8,20.6,00.0,30.5,23.6,05.8,0000.0,0025.10,0005.34,0003.19
2022-12-20 08:28:00,,0829.2,4.95,0.00,21.8,20.6,00.0,30.5,23.6,05.9,0000.0,0024.48,0005.25,0003.17
2022-12-20 08:29:00,,0828.8,5.03,0.00,21.8,20.6,00.0,30.5,23.6,05.7,0000.0,0023.05,0005.03,0003.05
2022-12-20 08:30:00,,0829.0,5.01,0.00,21.8,20.5,00.0,30.5,23.6,05.5,0000.0,0023.30,0004.84,0002.83
2022-12-20 08:31:00,,0829.1,4.99,0.00,21.8,20.5,00.0,30.5,23.5,05.5,0000.0,0024.32,0004.58,0002.60
2022-12-20 08:32:00,,0829.2,5.02,0.00,21.8,20.5,00.0,30.5,23.5,05.5,0000.0,0023.25,0004.39,0002.42
2022-12-20 08:33:00,,0828.9,4.96,0.00,21.8,20.5,00.0,30.5,23.5,05.4,0000.0,0021.87,0004.27,0002.29
2022-12-20 08:34:00,,0829.2,5.04,0.00,21.8,20.5,00.0,30.6,23.5,05.3,0000.0,0018.32,0004.04,0002.23
2022-12-20 08:35:00,,0829.2,4.99,0.00,21.8,20.4,00.0,30.6,23.5,05.5,0000.0,0017.06,0003.91,0002.20
2022-12-20 08:36:00,,0828.7,4.99,0.00,21.7,20.4,00.0,30.6,23.5,05.6,0000.0,0016.71,0003.90,0002.21
2022-12-20 08:37:00,,0828.8,5.02,0.00,21.7,20.4,00.0,30.6,23.5,05.7,0000.0,0016.23,0003.86,0002.21
2022-12-20 08:38:00,,0828.8,4.95,0.00,21.7,20.4,00.0,30.6,23.5,05.7,0000.0,0016.00,0003.83,0002.20
2022-12-20 08:39:00,,0829.2,5.02,0.00,21.7,20.3,00.0,30.6,23.5,05.6,0000.0,0015.47,0003.87,0002.22
2022-12-20 08:40:00,,0828.9,4.96,0.00,21.7,20.4,00.0,30.5,23.5,05.7,0000.0,0014.51,0003.87,0002.24
2022-12-20 08:41:00,,0829.0,5.04,0.00,21.8,21.2,00.0,30.5,23.7,05.6,0000.0,0012.71,0003.69,0002.20
2022-12-20 08:42:00,,0829.2,4.98,0.00,21.9,22.1,00.0,30.5,23.9,05.4,0000.0,0010.23,0003.57,0002.20
2022-12-20 08:43:00,,0829.2,5.03,0.00,22.0,22.0,00.0,30.6,24.0,05.4,0000.0,0008.61,0003.45,0002.20
2022-12-20 08:44:00,,0829.1,4.97,0.00,22.0,21.7,00.0,30.6,24.0,05.4,0000.0,0007.49,0003.39,0002.25
2022-12-20 08:45:00,,0828.8,5.02,0.00,22.0,21.4,00.0,30.7,23.9,05.3,0000.0,0008.17,0003.41,0002.26
2022-12-20 08:46:00,,0828.6,4.99,0.00,22.0,21.2,00.0,30.7,23.9,05.3,0000.0,0008.53,0003.47,0002.30
2022-12-20 08:47:00,,0828.8,4.99,0.00,22.0,21.0,00.0,30.7,23.8,05.3,0000.0,0009.43,0003.52,0002.36
2022-12-20 08:48:00,,0828.8,4.99,0.00,22.0,20.9,00.0,30.7,23.8,05.3,0000.0,0009.54,0003.58,0002.41
2022-12-20 08:49:00,,0829.2,5.04,0.00,22.0,20.8,00.0,30.7,23.8,05.3,0000.0,0009.67,0003.65,0002.48
2022-12-20 08:50:00,,0828.6,4.96,0.00,22.0,20.7,00.0,30.7,23.8,05.3,0000.0,0010.29,0003.77,0002.60
2022-12-20 08:51:00,,0829.2,5.03,0.00,22.0,20.7,00.0,30.7,23.7,05.3,0000.0,0011.41,0003.84,0002.68
2022-12-20 08:52:00,,0828.9,4.97,0.00,22.0,20.7,00.0,30.7,23.7,05.4,0000.0,0012.30,0003.88,0002.72
2022-12-20 08:53:00,,0828.7,5.01,0.00,21.9,20.6,00.0,30.7,23.7,05.3,0000.0,0013.51,0003.98,0002.77
2022-12-20 08:54:00,,0828.8,5.03,0.00,21.9,20.6,00.0,30.7,23.7,05.3,0000.0,0015.45,0004.12,0002.84
2022-12-20 08:55:00,,0828.7,4.96,0.00,21.9,20.6,00.0,30.7,23.7,05.3,0000.0,0015.37,0004.06,0002.80
2022-12-20 08:56:00,,0828.7,5.02,0.00,21.9,20.5,00.0,30.7,23.7,05.4,0000.0,0014.89,0003.96,0002.78
2022-12-20 08:57:00,,0828.7,4.96,0.00,21.9,20.5,00.0,30.7,23.7,05.4,0000.0,0016.00,0004.01,0002.88
2022-12-20 08:58:00,,0828.7,5.03,0.00,21.9,20.5,00.0,30.7,23.6,05.5,0000.0,0017.12,0004.19,0003.03
2022-12-20 08:59:00,,0828.7,5.01,0.00,21.9,20.6,00.0,30.7,23.6,05.5,0000.0,0020.18,0004.47,0003.16
